KU4ME Weather Reports


time (UTC)temp
F
wind
direction
speed
knots
gust
knots
rain 1hr
in
rain 24hr
in
rain mn
in
humidity
%
barometer
mb
20260906101004 70 260 0.0 0.0 0.00 0.00 0.00 96 1012.8
20260906100004 71 260 0.0 0.0 0.00 0.00 0.00 96 1012.6
20260906095005 71 260 0.0 0.0 0.00 0.00 0.00 96 1012.7
20260906094005 71 260 0.0 0.0 0.00 0.00 0.00 96 1012.6
20260906093004 71 260 0.0 0.0 0.00 0.00 0.00 96 1012.5
20260906091004 71 260 0.0 0.0 0.00 0.00 0.00 96 1012.8
20260906090004 71 260 0.0 0.0 0.00 0.00 0.00 95 1012.7
20260906083004 71 260 0.0 0.0 0.00 0.00 0.00 95 1012.5
20260906082004 71 260 0.0 0.0 0.00 0.00 0.00 95 1012.4
20260906080005 71 260 0.0 0.0 0.00 0.00 0.00 95 1012.5
20260906075004 72 260 0.0 0.0 0.00 0.00 0.00 95 1012.6
20260906074004 72 260 0.0 0.0 0.00 0.00 0.00 94 1012.4
20260906073004 72 260 0.0 0.0 0.00 0.00 0.00 94 1012.2
20260906072004 72 260 0.0 0.0 0.00 0.00 0.00 94 1012.1
20260906071004 72 260 0.0 0.0 0.00 0.00 0.00 94 1012.2
20260906070004 72 260 0.0 0.0 0.00 0.00 0.00 94 1012.3
20260906065004 72 260 0.0 0.0 0.00 0.00 0.00 94 1012.5
20260906064004 73 260 0.0 0.0 0.00 0.00 0.00 94 1012.7
20260906063004 72 260 0.0 0.0 0.00 0.00 0.00 93 1013.0
20260906062004 73 260 0.0 0.0 0.00 0.00 0.00 93 1013.0
20260906061004 73 260 0.0 0.0 0.00 0.00 0.00 93 1013.0
20260906060004 73 260 0.0 0.0 0.00 0.00 0.00 93 1012.9
20260906055004 73 260 0.0 0.0 0.00 0.00 0.00 92 1012.8
20260906054004 73 260 0.0 0.0 0.00 0.00 0.00 92 1012.9
20260906053004 74 260 0.0 0.0 0.00 0.00 0.00 92 1013.0
20260906050004 74 260 0.0 0.0 0.00 0.00 0.00 92 1013.1
20260906045003 74 260 0.0 0.0 0.00 0.00 0.00 92 1013.2
20260906043004 74 260 0.0 0.0 0.00 0.00 0.00 91 1013.2
20260906042007 74 260 0.0 0.0 0.00 0.00 0.00 91 1013.1
20260906040007 75 260 0.0 0.0 0.00 0.00 0.00 90 1013.3
20260906035007 75 260 0.0 0.0 0.00 0.00 0.00 90 1013.4
20260906034006 75 260 0.0 0.0 0.00 0.00 0.00 90 1013.3
20260906033006 75 260 0.0 0.0 0.00 0.00 0.00 90 1013.3
20260906032006 75 260 0.0 0.0 0.00 0.00 0.00 89 1013.5
20260906031007 76 260 0.0 0.0 0.00 0.00 0.00 89 1013.5
20260906030007 76 260 0.0 0.0 0.00 0.00 0.00 89 1013.5
20260906025007 76 260 0.0 0.0 0.00 0.00 0.00 89 1013.4
20260906024006 77 260 0.0 0.0 0.00 0.00 0.00 88 1013.4
20260906023006 77 260 0.0 0.0 0.00 0.00 0.00 88 1013.3
20260906022007 77 260 0.0 0.0 0.00 0.00 0.00 87 1013.2
20260906021007 77 260 0.0 0.0 0.00 0.00 0.00 87 1013.0
20260906020007 78 260 0.0 0.0 0.00 0.00 0.00 86 1012.9
20260906015006 78 260 0.0 0.0 0.00 0.00 0.00 85 1012.7
20260906013006 79 260 0.0 0.0 0.00 0.00 0.00 84 1012.6
20260906012006 79 260 0.0 0.0 0.00 0.00 0.00 83 1012.5
20260906011006 79 260 0.0 0.0 0.00 0.00 0.00 82 1012.5
20260906010006 79 260 0.0 0.0 0.00 0.00 0.00 82 1012.5
20260906005007 80 260 0.0 0.0 0.00 0.00 0.00 80 1012.6
20260906004006 80 260 0.0 0.0 0.00 0.00 0.00 80 1012.6
20260906003006 80 260 0.0 0.0 0.00 0.00 0.00 78 1012.1
20260906002006 81 260 0.0 0.0 0.00 0.00 0.00 77 1012.3
20260906001006 81 260 0.0 0.0 0.00 0.00 0.00 76 1012.0
20260906000006 82 260 0.0 0.0 0.00 0.00 0.00 74 1012.3
20260905235006 82 260 0.0 0.0 0.00 0.00 0.00 73 1012.3
20260905234006 83 260 0.0 0.0 0.00 0.00 0.00 71 1012.3
20260905233006 83 260 0.0 0.0 0.00 0.00 0.00 69 1012.2
20260905231006 85 260 0.0 0.0 0.00 0.00 0.00 67 1012.2
20260905230006 85 260 0.0 2.6 0.00 0.00 0.00 64 1012.1
20260905225006 86 55 0.0 0.0 0.00 0.00 0.00 62 1012.1
20260905224006 86 55 0.0 0.0 0.00 0.00 0.00 60 1012.1
20260905223006 87 55 0.0 0.0 0.00 0.00 0.00 59 1012.1
20260905222006 88 55 0.0 0.0 0.00 0.00 0.00 57 1012.0
20260905221006 89 55 0.0 0.0 0.00 0.00 0.00 56 1012.0
20260905220006 89 55 0.0 0.0 0.00 0.00 0.00 53 1012.1
20260905215006 90 55 0.0 2.6 0.00 0.00 0.00 51 1012.1
20260905214006 90 53 0.9 4.3 0.00 0.00 0.00 50 1012.1
20260905212005 92 71 0.0 2.6 0.00 0.00 0.00 48 1012.3
20260905211006 92 323 0.0 2.6 0.00 0.00 0.00 47 1012.3
20260905205005 93 6 0.0 0.0 0.00 0.00 0.00 47 1012.5
20260905203006 93 6 0.0 0.0 0.00 0.00 0.00 46 1012.6
20260905202006 92 6 0.0 2.6 0.00 0.00 0.00 46 1012.6
20260905201006 93 294 0.0 1.7 0.00 0.00 0.00 46 1012.6
20260905200006 93 294 0.0 4.3 0.00 0.00 0.00 46 1012.8
20260905195006 93 227 0.0 2.6 0.00 0.00 0.00 46 1013.2
20260905194006 93 231 0.9 5.2 0.00 0.00 0.00 46 1013.1
20260905193005 93 279 0.0 5.2 0.00 0.00 0.00 47 1013.4
20260905192006 93 140 0.0 0.0 0.00 0.00 0.00 46 1013.4
20260905190006 93 150 0.9 4.3 0.00 0.00 0.00 48 1014.0
20260905184006 92 204 0.0 2.6 0.00 0.00 0.00 51 1014.0
20260905182005 90 99 0.0 0.9 0.00 0.00 0.00 53 1014.4
20260905181005 89 141 0.0 0.0 0.00 0.00 0.00 55 1014.6
20260905180005 88 141 1.7 4.3 0.00 0.00 0.00 59 1014.9
20260905175005 86 215 0.0 2.6 0.00 0.00 0.00 64 1015.0
20260905174005 84 312 0.0 1.7 0.00 0.00 0.00 69 1015.1
20260905173006 84 312 0.0 1.7 0.00 0.00 0.00 70 1015.2
20260905172005 84 312 0.0 0.0 0.00 0.00 0.00 74 1015.2
20260905171005 82 312 0.0 1.7 0.00 0.00 0.00 77 1015.4
20260905165005 81 312 0.0 0.0 0.00 0.00 0.00 77 1015.5
20260905164005 82 312 0.0 0.0 0.00 0.00 0.00 73 1015.6
20260905162005 86 312 0.0 5.2 0.00 0.00 0.00 63 1015.6
20260905160006 85 229 0.0 0.0 0.00 0.00 0.00 65 1015.4
20260905154005 86 229 0.0 0.0 0.00 0.00 0.00 66 1015.2
20260905153005 84 229 0.0 0.0 0.00 0.00 0.00 70 1015.1
20260905152005 83 229 0.0 0.0 0.00 0.00 0.00 74 1015.1
20260905144004 78 229 0.0 0.0 0.00 0.00 0.00 85 1015.4
20260905143005 78 229 0.0 0.0 0.00 0.00 0.00 87 1015.5
20260905142005 77 229 0.0 0.0 0.00 0.00 0.00 89 1015.5
20260905141005 76 229 0.0 0.0 0.00 0.00 0.00 91 1015.5
20260905135005 75 229 0.0 0.0 0.00 0.00 0.00 92 1015.4
20260905133005 75 229 0.0 0.0 0.00 0.00 0.00 93 1015.7
20260905132005 74 229 0.0 0.0 0.00 0.00 0.00 94 1015.7
20260905131004 74 229 0.0 0.0 0.00 0.00 0.00 94 1015.7
20260905130004 73 229 0.0 0.0 0.00 0.00 0.00 95 1015.9
20260905125005 73 229 0.0 0.0 0.00 0.00 0.00 95 1015.8
20260905124005 72 229 0.0 0.0 0.00 0.00 0.00 95 1015.9
20260905123005 72 229 0.0 0.0 0.00 0.00 0.00 96 1015.9
20260905121005 71 229 0.0 0.0 0.00 0.00 0.00 96 1015.8
20260905120004 71 229 0.0 0.0 0.00 0.00 0.00 96 1015.7
20260905115005 71 229 0.0 0.0 0.00 0.00 0.00 96 1015.5
20260905114005 71 229 0.0 0.0 0.00 0.00 0.00 96 1015.4
20260905112004 71 229 0.0 0.0 0.00 0.00 0.00 96 1015.1
20260905111004 70 229 0.0 0.0 0.00 0.00 0.00 95 1015.1
20260905110004 71 229 0.0 0.0 0.00 0.00 0.00 95 1015.0
20260905105005 70 229 0.0 0.0 0.00 0.00 0.00 95 1015.0
20260905104005 70 229 0.0 0.0 0.00 0.00 0.00 95 1014.8
20260905103005 71 229 0.0 0.0 0.00 0.00 0.00 95 1014.7
20260905102004 71 229 0.0 0.0 0.00 0.00 0.00 95 1014.7